Regional Weather Roundup
Issued by NWS

Home | Current Version | Previous Version | Graphics & Text | Print | Product List | Glossary Off
Versions: 1 2 3 4 5 6 7 8 9 10 11 12 13 14 15 16 17 18 19 20 21 22 23 24 25 26 27 28 29 30 31 32 33 34 35 36 37 38 39 40 41 42 43 44 45 46 47 48 49 50

000
ASUS43 KDTX 010401
RWRMI
MICHIGAN HOURLY REGIONAL WEATHER ROUNDUP
NATIONAL WEATHER SERVICE DETROIT/PONTIAC MI
1200 AM EDT WED OCT 01 2014

NOTE: "FAIR" INDICATES FEW OR NO CLOUDS BELOW 12,000 FEET WITH NO
SIGNIFICANT WEATHER AND/OR OBSTRUCTION TO VISIBILITY.

MIZ047>049-052>055-059>063-066>070-074>076-081>083-010500-
SOUTHEAST LOWER MICHIGAN

CITY           SKY/WX    TMP DP  RH WIND       PRES   REMARKS
ADRIAN         CLOUDY    52  48  86 NE8       30.03S
ALMA           CLOUDY    51  48  89 NE3       30.06S
ANN ARBOR      CLOUDY    52  48  86 N5        30.03S
BAD AXE        CLOUDY    55  55 100 N6        30.03F FOG
CARO           CLOUDY    53  53  99 N6        30.02F FOG
DETROIT CITY   PTCLDY    54  48  80 N6        30.03S
DETROIT        CLOUDY    53  49  86 W7        30.04R
FLINT          CLOUDY    54  50  86 NW5       30.04S FOG
GROSSE ILE     CLOUDY    54  50  87 NW7       30.02R
HILLSDALE      CLOUDY    53  50  92 NE3       30.03S
HOWELL         CLOUDY    50  49  96 NW3       30.03F FOG

CITY           SKY/WX    TMP DP  RH WIND       PRES   REMARKS
JACKSON        CLOUDY    50  48  93 N3        30.04S
LAMBERTVILLE   CLEAR     48  46  93 CALM      30.03R FOG
LANSING        CLOUDY    51  47  86 NE5       30.05S
LAPEER         CLOUDY    52  51  95 N3        30.02S FOG
MASON          CLOUDY    50  48  92 CALM      30.05S
MONROE         PTCLDY    52  48  87 CALM      30.01S
MT. CLEMENS    CLOUDY    53  53  99 N3        29.99S
PONTIAC        CLOUDY    52  49  89 NW5       30.02R
PORT HOPE        N/A     57  55  93 NE20      30.02S
PORT HURON     CLOUDY    52  52 100 CALM      30.01S FOG
TRI CITIES     CLOUDY    52  49  89 NW8       30.06R
TROY           CLOUDY    55  50  85 CALM      30.04R
SAGINAW HB     CLOUDY    54  54 100 NW5       30.04R FOG
$$
MIZ043>046-050>051-056>058-064>065-071>073-077>080-010500-
SOUTHWEST LOWER MICHIGAN

CITY           SKY/WX    TMP DP  RH WIND       PRES   REMARKS
BATTLE CREEK   CLOUDY    54  47  77 E7        30.04S
BIG RAPIDS     CLOUDY    52  51  98 E5        30.05S
COLDWATER      CLOUDY    55  50  84 E5        30.03R
FREMONT        CLOUDY    52  49  89 CALM      30.05R
GRAND RAPIDS   CLOUDY    53  51  93 E7        30.05R
IONIA          CLOUDY    51  49  92 E5        30.05S
KALAMAZOO      CLOUDY    55  49  80 CALM      30.05R
LUDINGTON      CLOUDY    51  49  93 CALM      30.06S
MARSHALL       CLOUDY    51  48  88 NE6       30.04R
MOUNT PLEASANT CLOUDY    51  47  87 CALM      30.06S
MUSKEGON       CLOUDY    55  48  77 E5        30.05S
SOUTH HAVEN    CLOUDY    54  51  90 CALM      30.04S
$$
MIZ016>042-010500-
NORTHERN LOWER MICHIGAN

CITY           SKY/WX    TMP DP  RH WIND       PRES   REMARKS
ALPENA         CLOUDY    52  51  97 NE6       30.07S FOG
BEAVER ISLAND  CLOUDY    55  50  82 E7        30.06S
BELLAIRE       CLOUDY    50  48  92 CALM      30.06S
CADILLAC       CLOUDY    48  48  99 E7        30.05S
CHARLEVOIX     MOCLDY    51  49  92 SE3       30.09R
FRANKFORT      CLOUDY    52  48  87 CALM      30.06S
GAYLORD        CLOUDY    48  47  96 VRB5      30.05F FOG
GRAYLING       CLOUDY    49  49 100 E3        30.06S FOG
HARBOR SPRINGS MOCLDY    48  47  93 CALM      30.06R
HOUGHTON LAKE  CLOUDY    48  47  96 CALM      30.06R
OSCODA         CLOUDY    51  51 100 CALM      30.05S FOG
PELLSTON       CLOUDY    49  48  97 CALM      30.06F
TRAVERSE CITY  CLOUDY    52  47  83 E3        30.05S
$$
MIZ007>008-015-010500-
EASTERN UPPER MICHIGAN

CITY           SKY/WX    TMP DP  RH WIND       PRES   REMARKS
MACKINAC ISLAN CLOUDY    55  51  89 E8        30.05F
NEWBERRY       CLOUDY    48  45  91 CALM      30.06F
S. S. MARIE    CLOUDY    54  47  77 E6        30.07F
MUNISING         N/A     50  44  80 CALM      30.07R
$$
MIZ004>006-011>014-085-010500-
CENTRAL UPPER MICHIGAN

CITY           SKY/WX    TMP DP  RH WIND       PRES   REMARKS
MANISTIQUE     CLOUDY    52  50  93 CALM      30.06S
SAWYER-GWINN   CLOUDY    45  42  90 CALM      30.06S
$$
MIZ001>003-009>011-084-010500-
WESTERN UPPER MICHIGAN

CITY           SKY/WX    TMP DP  RH WIND       PRES   REMARKS
IRON MOUNTAIN  CLOUDY    47  44  90 SE5       30.05S
HOUGHTON       CLOUDY    45  41  86 SE8       30.03S
COPPER HARBOR    N/A     45  39  79 S7        30.05S
$$

ABBREVIATIONS USED IN REMARKS
   TC - TEMPERATURE IN CELSIUS
  WCI - WIND CHILL INDEX
   HX - HEAT INDEX
  VSB - VISIBILITY




USA.gov is the U.S. government's official web portal to all federal, state and local government web resources and services.